Location: Britannia Beach
(45.3521°N, 62.9901°W)
Time: 11:10:26
(UTC+00:00)

X-37B - Pass Details

Date: 09 August 2021
Orbit: 381 x 393 km, 45.0° (Epoch: 29 August)

Event Time Altitude Azimuth Distance (km) Brightness Sun altitude
Exits shadow 06:50:49 69° 97° (E) 411 0.7 -19.7°
Drops below altitude 10° 06:53:38 10° 89° (E) 1,397 3.9 -19.4°
Sets 06:55:42 0° 89° (E) 2,250 5.1 -19.2°
